Location: Brachbach
(49.1847°N, 9.7240°E)
Time: 07:49:33
(UTC+00:00)

FO-29 - Pass Details

Date: 14 March 2026
Orbit: 801 x 1320 km, 98.5° (Epoch: 17 April)

Event Time Altitude Azimuth Distance (km) Brightness Sun altitude
Rises 21:57:17 0° 8° (N) 4,038 13.3 -39.0°
Reaches altitude 10° 22:00:23 10° 355° (N) 3,148 12.7 -39.3°
Maximum altitude 22:05:48 23° 307° (NW) 2,392 11.9 -39.7°
Drops below altitude 10° 22:11:29 10° 259° (W) 3,318 12.4 -40.1°
Sets 22:14:52 0° 246° (WSW) 4,310 12.9 -40.4°
